Location: Newark
(55.7717°N, 25.7294°E)
Time: 23:18:13
(UTC+00:00)

N. Korean satellite - Visible Passes

Search period start: 30 September 2020 00:00
Search period end: 10 October 2020 00:00
Orbit: 455 x 503 km, 97.2° (Epoch: 30 September)

Date Brightness Start Highest point End Pass type
(mag) Time Alt. Az. Time Alt. Az. Time Alt. Az.
30 Sep 9.6 03:07:27 10° NE 03:10:18 21° E 03:13:06 10° SE visible
01 Oct 10.1 02:42:24 10° ENE 02:43:59 12° E 02:45:32 10° ESE visible
03 Oct 8.9 03:22:24 10° NNE 03:25:37 29° E 03:28:45 10° SSE visible
04 Oct 9.8 02:56:55 10° NE 02:59:20 17° E 03:01:43 10° SE visible
05 Oct 10.6 16:21:32 10° WSW 16:22:54 12° W 16:24:17 10° WNW visible
06 Oct 8.1 03:37:25 10° NNE 03:40:52 40° E 03:44:12 10° S visible
07 Oct 9.3 03:11:42 10° NE 03:14:37 23° E 03:17:29 10° SSE visible
08 Oct 10.0 02:46:29 10° ENE 02:48:16 13° E 02:50:03 10° ESE visible
09 Oct 7.3 03:52:29 10° NNE 03:56:01 59° E 03:59:28 10° S visible
09 Oct 10.2 16:09:43 10° WSW 16:11:50 15° W 16:13:56 10° NW visible
